Weather observations for the past three days for
Quebec City Jean Lesage International Airport
Imperial (Metric)
Date Time (edt) Wind (mph) Vis. (mi.) Weather Sky Cond. Temperature (ºF) Relative Humidity Wind Chill (°F) Heat Index (°F) Pressure Precipitation (in)
Air Dwpt 6 hour altimeter (in) sea level (mb) 1 hr 3 hr 6 hr
Max. Min.
08 19:00 SW 7 30.00 Mostly Cloudy FEW050 FEW060 BKN092 BKN140 BKN200 46.4 33.8 62% 43 29.76 1008.3
08 18:00 W 15 30.00 Mostly Cloudy FEW038 SCT078 BKN100 BKN200 50 33.8 54% 45 29.75 1007.8
08 17:00 W 15 30.00 Mostly Cloudy FEW055 BKN075 BKN100 50 32 50% 45 29.73 1007.3
08 16:00 W 18 30.00 Mostly Cloudy FEW050 SCT078 BKN110 46.4 35.6 66% 40 29.74 1007.5
08 15:00 W 17 30.00 Mostly Cloudy BKN050 BKN080 51.8 33.8 50% 29.72 1006.7
08 14:00 W 21 30.00 Mostly Cloudy and Breezy BKN045 BKN078 BKN110 50 32 50% 44 29.73 1007.0
08 13:00 W 12 G 20 30.00 Showers in Vicinity BKN040 BKN080 51.8 35.6 54% 29.72 1006.8
08 12:00 SW 14 G 21 30.00 Showers in Vicinity BKN030TCU BKN080 50 35.6 58% 45 29.72 1006.7
08 11:00 SW 15 30.00 Light Showers Rain BKN025TCU BKN080 48.2 37.4 66% 43 29.73 1007.0
08 10:00 SW 13 30.00 Mostly Cloudy SCT020 BKN070 44.6 37.4 76% 39 29.74 1007.6
08 09:00 SW 7 30.00 Mostly Cloudy FEW015 BKN065 BKN083 46.4 37.4 71% 43 29.74 1007.7
08 08:00 W 3 30.00 A Few Clouds FEW012 FEW060 FEW120 42.8 35.6 76% 29.73 1007.4
08 07:00 SW 7 30.00 A Few Clouds FEW010 FEW060 FEW100 37.4 35.6 93% 33 29.73 1007.1
08 06:00 SW 9 30.00 Mostly Cloudy FEW020 BKN063 35.6 33.8 93% 29 29.71 1006.6
08 05:00 W 6 30.00 Mostly Cloudy FEW020 BKN062 37.4 35.6 93% 33 29.7 1006.3
08 04:00 W 9 15.00 Mostly Cloudy SCT020 BKN062 BKN120 37.4 35.6 93% 31 29.7 1006.3
08 03:00 SW 8 15.00 Mostly Cloudy FEW020 BKN062 39.2 35.6 87% 34 29.7 1006.2
08 02:00 S 6 15.00 Mostly Cloudy FEW020 BKN063 41 35.6 81% 38 29.7 1006.3
08 01:00 SW 6 15.00 Mostly Cloudy FEW020 BKN070 41 35.6 81% 38 29.71 1006.5
08 00:00 W 5 15.00 Mostly Cloudy FEW020 BKN058 41 37.4 87% 38 29.7 1006.4
07 23:00 W 5 15.00 Mostly Cloudy FEW020 BKN080 41 37.4 87% 38 29.7 1006.2
07 22:00 W 14 15.00 Mostly Cloudy FEW020 BKN050 BKN070 41 39.2 93% 34 29.7 1006.2
07 21:00 W 9 15.00 Mostly Cloudy FEW020 FEW032 BKN050 BKN074 41 39.2 93% 36 29.71 1006.5
07 20:00 SW 12 G 18 30.00 Showers in Vicinity FEW020 FEW027 BKN052 BKN120 42.8 37.4 81% 37 29.69 1005.8
07 19:00 W 9 30.00 Mostly Cloudy FEW021 BKN029 BKN110 46.4 37.4 71% 42 29.67 1005.0
07 18:00 W 14 G 20 30.00 Mostly Cloudy SCT021 BKN097 46.4 39.2 76% 41 29.65 1004.6
07 17:00 W 14 30.00 Mostly Cloudy FEW023 SCT050 BKN070 BKN120 46.4 37.4 71% 41 29.64 1004.2
07 16:00 W 10 30.00 Mostly Cloudy FEW022 FEW054TCU BKN075 46.4 39.2 76% 42 29.64 1004.0
07 15:00 W 16 G 24 30.00 Overcast FEW022 SCT043TCU OVC078 48.2 37.4 66% 43 29.63 1003.9
07 14:00 SW 8 25.00 Mostly Cloudy FEW015 SCT025 BKN034 BKN070 48.2 41 76% 45 29.64 1004.1
07 13:00 W 9 25.00 Overcast SCT013 BKN022 OVC057 46.4 42.8 87% 42 29.65 1004.6
07 12:00 SW 5 4.00 Light Showers Rain Fog/Mist FEW008 OVC015 44.6 42.8 93% 43 29.66 1004.8
07 11:00 W 5 15.00 Overcast SCT008 OVC014 44.6 41 87% 43 29.67 1005.2
07 10:00 W 9 12.00 Overcast BKN008 OVC013 44.6 41 87% 40 29.69 1005.8
07 09:00 SW 8 12.00 Overcast BKN007 OVC014 42.8 41 93% 39 29.68 1005.7
07 08:00 W 9 6.00 Fog/Mist BKN008 OVC016 42.8 41 93% 38 29.68 1005.4
07 07:00 W 7 11.00 Fog in Vicinity BKN007 OVC100 42.8 41 93% 39 29.68 1005.6
07 06:00 SW 7 10.00 Fog in Vicinity FEW010 BKN098 OVC220 41 39.2 93% 37 29.67 1005.1
07 05:00 SW 2 20.00 Fog in Vicinity BKN013 OVC021 41 39.2 93% 29.69 1005.7
07 04:00 Vrbl 2 14.00 Fog in Vicinity FEW012 OVC021 41 39.2 93% 29.69 1005.8
07 03:00 Calm 12.00 Fog in Vicinity OVC021 41 39.2 93% 29.7 1006.1
07 02:00 SW 5 15.00 Overcast FEW017 SCT025 OVC200 41 39.2 93% 38 29.71 1006.5
07 01:00 W 8 15.00 Fog in Vicinity FEW010 OVC220 41 39.2 93% 36 29.72 1007.0
07 00:00 SW 5 15.00 Overcast FEW010 OVC190 41 39.2 93% 38 29.73 1007.2
06 23:00 W 8 13.00 Overcast FEW012 OVC150 42.8 41 93% 39 29.74 1007.6
06 22:00 SW 6 15.00 Overcast FEW012 OVC130 42.8 41 93% 40 29.74 1007.7
06 21:00 W 6 15.00 Mostly Cloudy FEW012 SCT080 BKN160 BKN200 41 39.2 93% 38 29.75 1008.0
06 20:00 W 6 30.00 Mostly Cloudy FEW012 SCT080 BKN130 42.8 41 93% 40 29.75 1007.9
06 19:00 SW 3 30.00 Mostly Cloudy FEW012 SCT025 BKN090 BKN180 44.6 41 87% 29.74 1007.6
06 18:00 SW 5 20.00 Light Showers Rain FEW012 BKN019 BKN060 OVC180 44.6 41 87% 43 29.76 1008.0
06 17:00 W 5 25.00 Light Showers Rain SCT020 OVC056 46.4 41 82% 45 29.75 1007.9
06 16:00 Vrbl 2 25.00 Light Showers Rain BKN014 OVC055 44.6 41 87% 29.76 1008.1
06 15:00 Vrbl 2 20.00 Light Rain SCT019 OVC055 44.6 39.2 81% 29.77 1008.4
06 14:00 Vrbl 2 15.00 Light Rain FEW006 SCT012 BKN020 OVC045 44.6 41 87% 29.78 1008.7
06 13:00 Calm 10.00 Light Rain FEW010 OVC040 44.6 41 87% 29.8 1009.4
06 12:00 Vrbl 2 8.00 Light Rain FEW012 OVC037 44.6 41 87% 29.81 1009.9
06 11:00 SW 7 8.00 Light Rain FEW012 OVC030 44.6 42.8 93% 41 29.83 1010.4
06 10:00 W 9 15.00 Light Rain FEW012 BKN040 OVC048 44.6 42.8 93% 40 29.81 1010.0
06 09:00 W 8 10.00 Light Rain FEW012 SCT026 OVC033 44.6 42.8 93% 41 29.81 1010.0
06 08:00 SW 8 10.00 Light Rain FEW012 BKN025 OVC060 46.4 42.8 87% 43 29.81 1009.8
06 07:00 SW 10 25.00 Light Rain FEW018 OVC060 48.2 44.6 87% 44 29.79 1009.0
06 06:00 SW 9 30.00 Overcast FEW018 OVC066 48.2 44.6 87% 45 29.76 1008.1
06 05:00 SW 13 15.00 Mostly Cloudy FEW050 BKN088 50 44.6 82% 46 29.77 1008.3
06 04:00 SW 8 15.00 Overcast FEW050 OVC100 50 46.4 88% 47 29.74 1007.5
06 03:00 SW 8 15.00 Overcast SCT050 OVC130 50 44.6 82% 47 29.72 1006.8
06 02:00 SW 10 15.00 Overcast SCT050 OVC120 51.8 44.6 77% 29.71 1006.4
06 01:00 SW 7 15.00 Overcast FEW050 OVC120 51.8 48.2 88% 29.69 1005.7
06 00:00 SW 7 15.00 Mostly Cloudy FEW050 BKN110 53.6 50 88% 29.67 1004.9
05 23:00 SW 9 15.00 Mostly Cloudy FEW005 FEW050 BKN110 53.6 51.8 94% 29.65 1004.2
05 22:00 SW 7 15.00 Light Showers Rain FEW015 FEW053 OVC081 55.4 53.6 94% 29.62 1003.5
05 21:00 SW 5 7.00 Light Showers Rain SCT047 BKN063 OVC079 55.4 55.4 100% 29.61 1003.0
Date Time (edt) Wind (mph) Vis. (mi.) Weather Sky Cond. Air Dwpt Max. Min. Relative Humidity Wind Chill (°F) Heat Index (°F) altimeter (in) sea level (mb) 1 hr 3 hr 6 hr
6 hour
Temperature (ºF) Pressure Precipitation (in)